This is the latest recevied weather packets stored in our database for station/object IZ1MEU-13. If no packets are shown the sender has not sent any weather packets the latest 10 day(s).
| Time | Temp. | Humidity | Pressure | Rain* | Wind** | Luminosity | Snow |
|---|---|---|---|---|---|---|---|
| 1777716796 | 16.67° C | 40% | 1027.6 hPa | - | - | - | - |
| 1777715593 | 16.11° C | 42% | 1028.1 hPa | - | - | - | - |
| 1777714389 | 15.56° C | 43% | 1028.4 hPa | - | - | - | - |
| 1777713186 | 15.56° C | 44% | 1028.5 hPa | - | - | - | - |
| 1777711983 | 14.44° C | 45% | 1028.6 hPa | - | - | - | - |
| 1777710779 | 14.44° C | 44% | 1028.9 hPa | - | - | - | - |
| 1777709576 | 13.89° C | 44% | 1028.9 hPa | - | - | - | - |
| 1777708372 | 13.33° C | 45% | 1029 hPa | - | - | - | - |
| 1777707169 | 12.78° C | 46% | 1029.1 hPa | - | - | - | - |
| 1777705965 | 12.78° C | 46% | 1029 hPa | - | - | - | - |
| 1777704762 | 12.22° C | 46% | 1029 hPa | - | - | - | - |
| 1777703558 | 11.67° C | 47% | 1029 hPa | - | - | - | - |
| 1777702355 | 11.11° C | 47% | 1029 hPa | - | - | - | - |
| 1777701151 | 10.56° C | 48% | 1028.9 hPa | - | - | - | - |
| 1777699948 | 10° C | 49% | 1028.8 hPa | - | - | - | - |
| 1777698745 | 9.44° C | 49% | 1028.8 hPa | - | - | - | - |
| 1777697541 | 8.89° C | 49% | 1028.6 hPa | - | - | - | - |
| 1777696338 | 8.33° C | 49% | 1028.6 hPa | - | - | - | - |
| 1777695134 | 8.33° C | 49% | 1028.5 hPa | - | - | - | - |
| 1777693931 | 8.33° C | 48% | 1028.5 hPa | - | - | - | - |
| 1777692727 | 8.33° C | 49% | 1028.4 hPa | - | - | - | - |
| 1777691524 | 8.89° C | 48% | 1028.5 hPa | - | - | - | - |
| 1777690320 | 8.89° C | 48% | 1028.6 hPa | - | - | - | - |
| 1777689117 | 9.44° C | 47% | 1028.6 hPa | - | - | - | - |
| 1777687913 | 9.44° C | 47% | 1028.5 hPa | - | - | - | - |
* Rain since midnight (hover to see other rain measurements)
** Current wind speed in m/s (hover to see current wind gust speed)